Home   Weather   Fetsund   Past weeks
Flag for Norway

Past Weather in Fetsund, Norway — Yesterday and Last 2 Weeks

Now
50 °F

Cool.


Feels Like: 50 °F
Forecast: 54 / 39 °F
Wind: 2 mph from Northeast

Location: Oslo-Blindern

Current Time: Sep 23, 2019 at 10:00:03 pm

Latest Report: Sep 23, 2019 at 9:00 pm


Visibility: 31 mi

Pressure: 30.10 "Hg

Humidity: 81%

Dew Point: 44 °F

Location of FetsundLocation

Past Weather in Fetsund — Graph

°F

Fetsund Temperature Yesterday

Maximum temperature yesterday: 67 °F (at 4:00 pm)
Minimum temperature yesterday: 44 °F (at 8:00 am)
Average temperature yesterday: 54 °F

High & Low Weather Summary for the Past Weeks

 TemperatureHumidityPressure
High72 °F (Sep 21, 4:00 pm)100% (Sep 22, 7:00 am)30.29 "Hg (Sep 22, 7:00 am)
Low37 °F (Sep 19, 7:00 am)33% (Sep 16, 3:00 pm)29.35 "Hg (Sep 15, 4:00 pm)
Average53 °F69%29.93 "Hg
* Reported Sep 8 8:00 pm — Sep 23 8:00 pm, Fetsund. Weather by CustomWeather, © 2019

Note: Actual official high and low records may vary slightly from our data, if they occured in-between our weather recording intervals... More about our weather records

Advertising

Fetsund Weather History for the Previous 24 Hours

Scroll right to see more
 ConditionsComfort  
Time TempWeatherWind HumidityBarometerVisibility
8:00 pm
Mon, Sep 23
50 °FOvercast.2 mph80%30.11 "Hg47 mi
7:00 pm51 °FCool.3 mph77%30.11 "Hg31 mi
6:00 pm52 °FCool.2 mph75%30.11 "Hg25 mi
5:00 pm52 °FOvercast.1 mph73%30.12 "Hg47 mi
4:00 pm51 °FCool.2 mph75%30.14 "Hg31 mi
3:00 pm52 °FCool.2 mph75%30.15 "Hg31 mi
2:00 pm51 °FOvercast.1 mph76%30.16 "Hg43 mi
1:00 pm50 °FCool.1 mph78%30.17 "Hg31 mi
12:00 pm50 °FCool.2 mph79%30.19 "Hg31 mi
11:00 am49 °FCool.3 mph80%30.19 "Hg31 mi
10:00 am49 °FCool.2 mph81%30.19 "Hg31 mi
9:00 am49 °FCool.2 mph80%30.19 "Hg31 mi
8:00 am49 °FOvercast.2 mph80%30.18 "Hg43 mi
7:00 am49 °FCool.2 mph80%30.17 "Hg31 mi
6:00 am49 °FCool.2 mph78%30.17 "Hg31 mi
5:00 am49 °FCool.2 mph79%30.18 "Hg31 mi
4:00 am50 °FCool.3 mph79%30.18 "Hg31 mi
3:00 am50 °FCool.2 mph78%30.18 "Hg31 mi
2:00 am50 °FCool.2 mph78%30.18 "Hg31 mi
1:00 am50 °FCool.3 mph78%30.18 "Hg31 mi
12:00 am50 °FCool.3 mph78%30.18 "Hg31 mi
11:00 pm
Sun, Sep 22
50 °FOvercast.5 mph76%30.16 "Hg47 mi
10:00 pm51 °FCool.3 mph78%30.15 "Hg31 mi
Weather by CustomWeather, © 2019

See weather overview